Location: Newark
(37.8333°N, 119.5000°W)
Time: 18:51:30
(UTC+00:00)

Tiros 1 despin weight - Pass Details

Date: 22 August 2019
Orbit: 594 x 642 km, 48.2° (Epoch: 17 September)

Event Time Altitude Azimuth Distance (km) Brightness Sun altitude
Rises 08:21:23 0° 260° (W) 2,833 - -40.1°
Reaches altitude 10° 08:23:47 10° 269° (W) 1,938 - -40.1°
Maximum altitude 08:27:56 38° 337° (NNW) 935 - -39.9°
Drops below altitude 10° 08:32:09 10° 46° (NE) 1,968 - -39.8°
Exits shadow 08:33:15 - 51° (NE) 2,367 ? -39.8°
Sets 08:34:37 0° 55° (NE) 2,884 ? -39.7°
